62P/Tsuchinshan 1 (2023)

Japanese version
Home page
Updated on February 10, 2025

---------------------------------------------------------------------

* Profile

* Pictures

* Orbital Elements

Epoch 2024 Mar. 31.0 TT = JDT 2460400.5
T 2023 Dec. 25.11528 TT                                 Rudenko
q   1.2649397            (2000.0)            P               Q
n   0.15938742     Peri.   47.30243     -0.43554389     -0.89687406
a   3.3689923      Node    68.66644     +0.79986290     -0.42480116
e   0.6245347      Incl.    4.73749     +0.41294172     -0.12312955
P   6.18
>From 1990 observations 2023 Aug. 29-2024 June 1, mean residual 0".5.
     Nongravitational parameters A1 = +0.58, A2 = +0.4696.

* Finding Charts

* Magnitudes Graph

        m1 = 10.0 + 5 log d + 30.0 log r          [    ,-100]  (             - 2023 Sept.16)
        m1 =  3.0 + 5 log d + 60   log r          [-100,   0]  (2023 Sept.16 - 2023 Dec. 25)
        m1 =  6.2 + 5 log d + 28.0 log r(t - 10)  [   0,    ]  (2023 Dec. 25 -             )

---------------------------------------------------------------------

The orbital elements are published on M.P.E.C. 2024-M41.
The charts are made with StellaNavigator Ver.10 (AstroArts).
The magnitudes graphs are made with Comet for Windows.

---------------------------------------------------------------------

Copyright(C) Seiichi Yoshida (comet@aerith.net). All rights reserved.